Content
SEND FEEDBACK

Daily
Averages
Monthly
Summary
United States of America

GREENFIELD, MASSACHUSETTS


Home > North America > United States > Massachusetts
Elevation: 190 feet     Latitude: 42 37N     Longitude: 072 33W

WEATHER
 
SELECT A DAY
Number of Records: 212,687;   Date Range: 7/1/96 - 9/18/14
 
SHARE

PRINT THIS DATA

[ ← Previous Day ]
WEATHER ALMANAC - APRIL 27, 2014
[ Next Day → ]
[ °C ]   °F
Weather ElementAverageHighLow
Temperature45.5 °F50 °F (12:52 pm)41 °F (11:52 pm)
Dewpoint37 °F41 °F (12:52 am)32 °F (10:52 pm)
Humidity73.4 %96 % (2:52 am)56 % (1:52 pm)
Barometer29.94 in30.10 in (9:52 pm)29.82 in (2:42 am)
Wind Speed7.7 mph17.3 mph (4:52 pm)
Wind Gust24.2 mph (6:52 pm)
Weather ElementAverage
Visibility9.7 mi
Wind DirectionWSW (233.7 °)

Weather ElementTotal
Precipitation0.01 in
Heating Degree Days19.5 (Base 65)
Averaged from 30 records on April 27, 2014
WEATHER CONDITIONS BREAKOUT
WIND DIRECTION BREAKOUT
WEATHER BY HOUR - APRIL 27, 2014
[ °C ]   °F
Local TimeTemperatureDewpointHumidityBarometerVisibilityWind DirectionWind SpeedGust SpeedPrecipitationEventsConditions
12:52 AM43.0 °F41.0 °F93 %29.84 in10.0 miSouth (180°)4.6 mph0.01 inRainLight Rain
1:52 AM43.0 °F39.9 °F89 %29.83 in8.0 miCalm0.00 inRainLight Rain
2:42 AM43.0 °F41.0 °F93 %29.82 in10.0 miCalm0.00 inOvercast
2:52 AM42.1 °F41.0 °F96 %29.83 in9.0 miCalm0.00 inOvercast
3:02 AM43.0 °F41.0 °F93 %29.82 in9.0 miCalmOvercast
3:10 AM43.0 °F41.0 °F93 %29.82 in9.0 miCalmOvercast
3:42 AM43.0 °F41.0 °F93 %29.83 in9.0 miCalmOvercast
3:52 AM43.0 °F41.0 °F93 %29.84 in6.0 miCalmOvercast
5:52 AM42.1 °F39.0 °F89 %29.87 in10.0 miWNW (300°)5.8 mphOvercast
6:52 AM43.0 °F39.0 °F86 %29.90 in10.0 miWNW (300°)4.6 mphOvercast
8:52 AM44.1 °F37.0 °F76 %29.92 in10.0 miNorth (350°)8.1 mphOvercast
9:30 AM45.0 °F37.0 °F74 %29.91 in10.0 miNW (320°)8.1 mphOvercast
9:52 AM46.9 °F37.0 °F68 %29.93 in10.0 miNorth (10°)9.2 mphOvercast
10:52 AM48.0 °F37.0 °F66 %29.94 in10.0 miNW (310°)12.7 mphOvercast
11:09 AM48.0 °F37.9 °F68 %29.93 in10.0 miWNW (290°)9.2 mphOvercast
11:52 AM48.9 °F36.0 °F61 %29.95 in10.0 miWNW (300°)11.5 mph0.00 inRainLight Rain
12:01 PM48.0 °F37.0 °F66 %29.94 in10.0 miNW (320°)11.5 mph0.00 inRainLight Rain
12:18 PM48.9 °F36.0 °F61 %29.94 in10.0 miNW (310°)12.7 mph0.00 inOvercast
12:52 PM50.0 °F35.1 °F57 %29.95 in10.0 miNW (320°)12.7 mph20.7 mph0.00 inOvercast
1:52 PM48.9 °F34.0 °F56 %29.97 in10.0 miNorth (350°)13.8 mph20.7 mphOvercast
2:52 PM48.9 °F34.0 °F56 %29.98 in10.0 miNorth (350°)11.5 mphOvercast
3:52 PM48.9 °F35.1 °F59 %30.00 in10.0 miNNW (340°)12.7 mphOvercast
4:52 PM48.9 °F35.1 °F59 %30.00 in10.0 miNNW (330°)17.3 mphOvercast
5:52 PM48.9 °F35.1 °F59 %30.00 in10.0 miNNW (340°)11.5 mphMostly Cloudy
6:52 PM48.0 °F34.0 °F58 %30.03 in10.0 miNNW (340°)9.2 mph24.2 mphClear
7:52 PM46.0 °F35.1 °F66 %30.05 in10.0 miNW (320°)9.2 mphScattered Clouds
8:52 PM44.1 °F35.1 °F71 %30.08 in10.0 miNNW (330°)11.5 mphScattered Clouds
9:52 PM44.1 °F33.1 °F65 %30.10 in10.0 miNW (320°)9.2 mphOvercast
10:52 PM42.1 °F32.0 °F67 %30.09 in10.0 miNNW (340°)8.1 mphScattered Clouds
11:52 PM41.0 °F32.0 °F70 %30.09 in10.0 miNNW (340°)6.9 mphClear
Hourly data recorded from KORE, located miles away from Greenfield, Massachusetts







STORIES FROM OUR PARTNERS